Weather History for Lima, OH

Change the Weather History Date:

Thursday, January 17, 2013

  Actual Average (KFDY) Record (KFDY)
Temperature  
Mean Temperature 30 °F -  
Max Temperature 37 °F 30 °F 62 °F (1952)
Min Temperature 21 °F 17 °F -17 °F (1977)
Degree Days  
Heating Degree Days 35    
Moisture  
Dew Point 24 °F    
Average Humidity 72    
Maximum Humidity 82    
Minimum Humidity 59    
Precipitation  
Precipitation 0.00 in - - ()
Sea Level Pressure  
Sea Level Pressure 30.18 in    
Wind  
Wind Speed 11 mph (West)    
Max Wind Speed 17 mph    
Max Gust Speed 24 mph    
Visibility 9 miles    
Events      
Averages and records for this station are not official NWS values.
T = Trace of Precipitation, MM = Missing Value Source: NWS Daily Summary

Daily Weather History Graph

Daily Weather History Graph

Search for Another Location

Airport:

Trip Planner

Search our weather history database for the weather conditions in past years. The results will help you decide how hot, cold, wet, or windy it might be!

Date:

Astronomy

Jan. 17, 2013 Rise Set
Actual Time 7:56 AM EST 5:36 PM EST
Civil Twilight 7:27 AM EST 6:06 PM EST
Nautical Twilight 6:53 AM EST 6:39 PM EST
Astronomical Twilight 6:20 AM EST 7:12 PM EST
Moon 11:00 AM EST (1/17) No Moon Set
Length of Visible Light 10h 39m
Length of Day
9h 39m
Waxing Crescent, 37% of the Moon is Illuminated
Jan 17
Waxing Crescent
Jan 18
First Quarter
Jan 26
Full
Feb 3
Last Quarter
Feb 10
New

Hourly Weather History & Observations

Time (EST) Temp. Windchill Dew Point Humidity Pressure Visibility Wind Dir Wind Speed Gust Speed Precip Events Conditions
12:35 AM 32.0 °F 21.6 °F 24.8 °F 75% 30.03 in 10.0 mi West 15.0 mph - N/A   Overcast
12:53 AM 32.0 °F 22.1 °F 24.1 °F 73% 30.06 in 10.0 mi West 13.8 mph - N/A   Overcast
1:16 AM 32.0 °F 22.5 °F 24.8 °F 75% 30.05 in 10.0 mi West 12.7 mph - N/A   Overcast
1:53 AM 32.0 °F 23.6 °F 24.1 °F 73% 30.09 in 10.0 mi WSW 10.4 mph - N/A   Overcast
2:53 AM 32.0 °F 24.8 °F 24.1 °F 73% 30.10 in 10.0 mi SW 8.1 mph - N/A   Overcast
3:53 AM 32.0 °F 24.8 °F 25.0 °F 75% 30.11 in 9.0 mi WSW 8.1 mph - N/A   Overcast
4:53 AM 32.0 °F 25.6 °F 25.0 °F 75% 30.12 in 9.0 mi SW 6.9 mph - N/A   Overcast
5:53 AM 32.0 °F 25.6 °F 26.1 °F 79% 30.13 in 8.0 mi West 6.9 mph - N/A   Overcast
6:53 AM 32.0 °F 27.5 °F 26.1 °F 79% 30.15 in 8.0 mi SW 4.6 mph - N/A   Overcast
7:34 AM 30.2 °F 25.4 °F 24.8 °F 80% 30.13 in 8.0 mi SW 4.6 mph - N/A   Scattered Clouds
7:53 AM 30.0 °F 25.2 °F 25.0 °F 82% 30.18 in 8.0 mi WSW 4.6 mph - N/A   Clear
8:53 AM 30.9 °F 25.2 °F 25.0 °F 79% 30.20 in 6.0 mi SW 5.8 mph - N/A   Haze
9:53 AM 30.9 °F 22.8 °F 26.1 °F 82% 30.22 in 6.0 mi SW 9.2 mph - N/A   Haze
10:51 AM 33.8 °F 27.0 °F 26.6 °F 75% 30.20 in 6.0 mi WSW 8.1 mph - N/A   Haze
10:53 AM 33.1 °F 26.1 °F 27.0 °F 78% 30.23 in 6.0 mi WSW 8.1 mph - N/A   Haze
11:15 AM 33.8 °F 27.7 °F 26.6 °F 75% 30.20 in 6.0 mi WSW 6.9 mph - N/A   Haze
11:53 AM 37.0 °F 33.3 °F 28.9 °F 73% 30.21 in 8.0 mi WSW 4.6 mph - N/A   Partly Cloudy
12:07 PM 35.6 °F 29.2 °F 26.6 °F 70% 30.17 in 9.0 mi NW 8.1 mph - N/A   Mostly Cloudy
12:53 PM 36.0 °F 29.0 °F 26.1 °F 67% 30.18 in 10.0 mi NW 9.2 mph - N/A   Mostly Cloudy
1:13 PM 35.6 °F 28.6 °F 26.6 °F 70% 30.14 in 10.0 mi NW 9.2 mph - N/A   Scattered Clouds
1:44 PM 37.4 °F 29.3 °F 26.6 °F 65% 30.13 in 10.0 mi NNW 12.7 mph - N/A   Mostly Cloudy
1:53 PM 36.0 °F 27.5 °F 27.0 °F 70% 30.15 in 10.0 mi NW 12.7 mph - N/A   Scattered Clouds
2:53 PM 37.9 °F 29.2 °F 28.0 °F 68% 30.15 in 10.0 mi WNW 15.0 mph 18.4 mph N/A   Scattered Clouds
3:53 PM 37.9 °F 30.5 °F 28.0 °F 68% 30.16 in 10.0 mi NW 11.5 mph - N/A   Partly Cloudy
4:53 PM 37.0 °F 28.9 °F 24.1 °F 59% 30.18 in 10.0 mi NW 12.7 mph 20.7 mph N/A   Clear
5:53 PM 34.0 °F 24.2 °F 21.9 °F 61% 30.20 in 10.0 mi NW 15.0 mph - N/A   Clear
6:53 PM 30.9 °F 20.2 °F 21.0 °F 67% 30.25 in 10.0 mi NW 15.0 mph - N/A   Clear
7:53 PM 28.9 °F 17.7 °F 19.0 °F 67% 30.30 in 10.0 mi NW 15.0 mph - N/A   Clear
8:53 PM 26.1 °F 13.1 °F 16.0 °F 66% 30.32 in 10.0 mi NW 17.3 mph 24.2 mph N/A   Clear
9:53 PM 24.1 °F 12.0 °F 14.0 °F 65% 30.35 in 10.0 mi NNW 13.8 mph - N/A   Clear
10:53 PM 23.0 °F 13.1 °F 12.0 °F 63% 30.36 in 10.0 mi NW 9.2 mph - N/A   Clear
11:53 PM 21.9 °F 13.4 °F 12.9 °F 68% 30.38 in 10.0 mi WNW 6.9 mph - N/A   Clear